Year,Month,Day,Hour,Minute,Value (Times are PST for temperature in C)
2012,05,25,00,00,10.20
2012,05,25,00,01,10.20
2012,05,25,00,02,10.20
2012,05,25,00,03,10.20
2012,05,25,00,04,10.20
2012,05,25,00,05,10.20
2012,05,25,00,06,10.20
2012,05,25,00,07,10.20
2012,05,25,00,08,10.20
2012,05,25,00,09,10.20
2012,05,25,00,10,10.20
2012,05,25,00,11,10.20
2012,05,25,00,12,10.20
2012,05,25,00,13,10.10
2012,05,25,00,14,10.10
2012,05,25,00,15,10.10
2012,05,25,00,16,10.10
2012,05,25,00,17,10.00
2012,05,25,00,18,10.00
2012,05,25,00,19,10.00
2012,05,25,00,20,9.90
2012,05,25,00,21,9.90
2012,05,25,00,22,9.90
2012,05,25,00,23,9.80
2012,05,25,00,24,9.80
2012,05,25,00,25,9.80
2012,05,25,00,26,9.80
2012,05,25,00,27,9.80
2012,05,25,00,28,9.80
2012,05,25,00,29,9.80
2012,05,25,00,30,9.80
2012,05,25,00,31,9.80
2012,05,25,00,32,9.80
2012,05,25,00,33,9.80
2012,05,25,00,34,9.80
2012,05,25,00,35,9.80
2012,05,25,00,36,9.80
2012,05,25,00,37,9.70
2012,05,25,00,38,9.70
2012,05,25,00,39,9.70
2012,05,25,00,40,9.70
2012,05,25,00,41,9.70
2012,05,25,00,42,9.60
2012,05,25,00,43,9.60
2012,05,25,00,44,9.60
2012,05,25,00,45,9.60
2012,05,25,00,46,9.60
2012,05,25,00,47,9.60
2012,05,25,00,48,9.60
2012,05,25,00,49,9.60
2012,05,25,00,50,9.60
2012,05,25,00,51,9.60
2012,05,25,00,52,9.60
2012,05,25,00,53,9.60
2012,05,25,00,54,9.60
2012,05,25,00,55,9.60
2012,05,25,00,56,9.60
2012,05,25,00,57,9.60
2012,05,25,00,58,9.60
2012,05,25,00,59,9.60
2012,05,25,01,00,9.50
2012,05,25,01,01,9.50
2012,05,25,01,02,9.50
2012,05,25,01,03,9.50
2012,05,25,01,04,9.40
2012,05,25,01,05,9.40
2012,05,25,01,06,9.40
2012,05,25,01,07,9.40
2012,05,25,01,08,9.40
2012,05,25,01,09,9.40
2012,05,25,01,10,9.40
2012,05,25,01,11,9.40
2012,05,25,01,12,9.40
2012,05,25,01,13,9.40
2012,05,25,01,14,9.40
2012,05,25,01,15,9.40
2012,05,25,01,16,9.40
2012,05,25,01,17,9.30
2012,05,25,01,18,9.30
2012,05,25,01,19,9.30
2012,05,25,01,20,9.30
2012,05,25,01,21,9.20
2012,05,25,01,22,9.20
2012,05,25,01,23,9.20
2012,05,25,01,24,9.20
2012,05,25,01,25,9.20
2012,05,25,01,26,9.20
2012,05,25,01,27,9.20
2012,05,25,01,28,9.20
2012,05,25,01,29,9.10
2012,05,25,01,30,9.10
2012,05,25,01,31,9.10
2012,05,25,01,32,9.00
2012,05,25,01,33,9.00
2012,05,25,01,34,8.90
2012,05,25,01,35,8.90
2012,05,25,01,36,8.80
2012,05,25,01,37,8.80
2012,05,25,01,38,8.80
2012,05,25,01,39,8.70
2012,05,25,01,40,8.70
2012,05,25,01,41,8.70
2012,05,25,01,42,8.60
2012,05,25,01,43,8.60
2012,05,25,01,44,8.60
2012,05,25,01,45,8.60
2012,05,25,01,46,8.60
2012,05,25,01,47,8.60
2012,05,25,01,48,8.60
2012,05,25,01,49,8.60
2012,05,25,01,50,8.60
2012,05,25,01,51,8.50
2012,05,25,01,52,8.50
2012,05,25,01,53,8.50
2012,05,25,01,54,8.50
2012,05,25,01,55,8.50
2012,05,25,01,56,8.40
2012,05,25,01,57,8.40
2012,05,25,01,58,8.40
2012,05,25,01,59,8.40
2012,05,25,02,00,8.40
2012,05,25,02,01,8.40
2012,05,25,02,02,8.30
2012,05,25,02,03,8.30
2012,05,25,02,04,8.30
2012,05,25,02,05,8.30
2012,05,25,02,06,8.30
2012,05,25,02,07,8.30
2012,05,25,02,08,8.30
2012,05,25,02,09,8.30
2012,05,25,02,10,8.30
2012,05,25,02,11,8.30
2012,05,25,02,12,8.30
2012,05,25,02,13,8.30
2012,05,25,02,14,8.30
2012,05,25,02,15,8.30
2012,05,25,02,16,8.20
2012,05,25,02,17,8.20
2012,05,25,02,18,8.20
2012,05,25,02,19,8.20
2012,05,25,02,20,8.20
2012,05,25,02,21,8.20
2012,05,25,02,22,8.10
2012,05,25,02,23,8.10
2012,05,25,02,24,8.10
2012,05,25,02,25,8.00
2012,05,25,02,26,8.00
2012,05,25,02,27,8.00
2012,05,25,02,28,7.90
2012,05,25,02,29,7.90
2012,05,25,02,30,7.90
2012,05,25,02,31,7.80
2012,05,25,02,32,7.80
2012,05,25,02,33,7.80
2012,05,25,02,34,7.80
2012,05,25,02,35,7.70
2012,05,25,02,36,7.70
2012,05,25,02,37,7.70
2012,05,25,02,38,7.70
2012,05,25,02,39,7.60
2012,05,25,02,40,7.60
2012,05,25,02,41,7.60
2012,05,25,02,42,7.60
2012,05,25,02,43,7.60
2012,05,25,02,44,7.50
2012,05,25,02,45,7.50
2012,05,25,02,46,7.50
2012,05,25,02,47,7.50
2012,05,25,02,48,7.50
2012,05,25,02,49,7.50
2012,05,25,02,50,7.50
2012,05,25,02,51,7.50
2012,05,25,02,52,7.50
2012,05,25,02,53,7.60
2012,05,25,02,54,7.60
2012,05,25,02,55,7.60
2012,05,25,02,56,7.60
2012,05,25,02,57,7.60
2012,05,25,02,58,7.60
2012,05,25,02,59,7.60
2012,05,25,03,00,7.60
2012,05,25,03,01,7.50
2012,05,25,03,02,7.50
2012,05,25,03,03,7.40
2012,05,25,03,04,7.40
2012,05,25,03,05,7.40
2012,05,25,03,06,7.40
2012,05,25,03,07,7.30
2012,05,25,03,08,7.30
2012,05,25,03,09,7.30
2012,05,25,03,10,7.20
2012,05,25,03,11,7.20
2012,05,25,03,12,7.20
2012,05,25,03,13,7.20
2012,05,25,03,14,7.10
2012,05,25,03,15,7.10
2012,05,25,03,16,7.10
2012,05,25,03,17,7.10
2012,05,25,03,18,7.00
2012,05,25,03,19,7.00
2012,05,25,03,20,7.00
2012,05,25,03,21,7.00
2012,05,25,03,22,7.00
2012,05,25,03,23,7.00
2012,05,25,03,24,7.00
2012,05,25,03,25,7.00
2012,05,25,03,26,6.90
2012,05,25,03,27,6.90
2012,05,25,03,28,6.90
2012,05,25,03,29,6.90
2012,05,25,03,30,7.00
2012,05,25,03,31,7.00
2012,05,25,03,32,7.00
2012,05,25,03,33,7.00
2012,05,25,03,34,7.00
2012,05,25,03,35,7.00
2012,05,25,03,36,7.00
2012,05,25,03,37,7.00
2012,05,25,03,38,7.00
2012,05,25,03,39,7.00
2012,05,25,03,40,7.00
2012,05,25,03,41,6.90
2012,05,25,03,42,6.90
2012,05,25,03,43,6.90
2012,05,25,03,44,6.90
2012,05,25,03,45,6.90
2012,05,25,03,46,6.90
2012,05,25,03,47,6.90
2012,05,25,03,48,6.90
2012,05,25,03,49,6.80
2012,05,25,03,50,6.80
2012,05,25,03,51,6.80
2012,05,25,03,52,6.80
2012,05,25,03,53,6.80
2012,05,25,03,54,6.80
2012,05,25,03,55,6.80
2012,05,25,03,56,6.80
2012,05,25,03,57,6.80
2012,05,25,03,58,6.90
2012,05,25,03,59,6.90
2012,05,25,04,00,6.90
2012,05,25,04,01,6.90
2012,05,25,04,02,6.90
2012,05,25,04,03,6.90
2012,05,25,04,04,6.90
2012,05,25,04,05,6.90
2012,05,25,04,06,6.90
2012,05,25,04,07,6.90
2012,05,25,04,08,6.90
2012,05,25,04,09,6.80
2012,05,25,04,10,6.80
2012,05,25,04,11,6.80
2012,05,25,04,12,6.80
2012,05,25,04,13,6.80
2012,05,25,04,14,6.70
2012,05,25,04,15,6.70
2012,05,25,04,16,6.70
2012,05,25,04,17,6.70
2012,05,25,04,18,6.70
2012,05,25,04,19,6.70
2012,05,25,04,20,6.60
2012,05,25,04,21,6.70
2012,05,25,04,22,6.60
2012,05,25,04,23,6.60
2012,05,25,04,24,6.60
2012,05,25,04,25,6.60
2012,05,25,04,26,6.60
2012,05,25,04,27,6.60
2012,05,25,04,28,6.60
2012,05,25,04,29,6.60
2012,05,25,04,30,6.60
2012,05,25,04,31,6.50
2012,05,25,04,32,6.50
2012,05,25,04,33,6.50
2012,05,25,04,34,6.50
2012,05,25,04,35,6.50
2012,05,25,04,36,6.50
2012,05,25,04,37,6.50
2012,05,25,04,38,6.50
2012,05,25,04,39,6.50
2012,05,25,04,40,6.50
2012,05,25,04,41,6.50
2012,05,25,04,42,6.50
2012,05,25,04,43,6.50
2012,05,25,04,44,6.50
2012,05,25,04,45,6.50
2012,05,25,04,46,6.60
2012,05,25,04,47,6.60
2012,05,25,04,48,6.60
2012,05,25,04,49,6.60
2012,05,25,04,50,6.60
2012,05,25,04,51,6.60
2012,05,25,04,52,6.60
2012,05,25,04,53,6.60
2012,05,25,04,54,6.70
2012,05,25,04,55,6.70
2012,05,25,04,56,6.70
2012,05,25,04,57,6.70
2012,05,25,04,58,6.70
2012,05,25,04,59,6.60
2012,05,25,05,00,6.60
2012,05,25,05,01,6.60
2012,05,25,05,02,6.60
2012,05,25,05,03,6.60
2012,05,25,05,04,6.60
2012,05,25,05,05,6.60
2012,05,25,05,06,6.60
2012,05,25,05,07,6.60
2012,05,25,05,08,6.60
2012,05,25,05,09,6.60
2012,05,25,05,10,6.60
2012,05,25,05,11,6.60
2012,05,25,05,12,6.60
2012,05,25,05,13,6.60
2012,05,25,05,14,6.60
2012,05,25,05,15,6.50
2012,05,25,05,16,6.50
2012,05,25,05,17,6.50
2012,05,25,05,18,6.50
2012,05,25,05,19,6.50
2012,05,25,05,20,6.50
2012,05,25,05,21,6.50
2012,05,25,05,22,6.50
2012,05,25,05,23,6.50
2012,05,25,05,24,6.50
2012,05,25,05,25,6.50
2012,05,25,05,26,6.40
2012,05,25,05,27,6.40
2012,05,25,05,28,6.40
2012,05,25,05,29,6.40
2012,05,25,05,30,6.40
2012,05,25,05,31,6.40
2012,05,25,05,32,6.40
2012,05,25,05,33,6.40
2012,05,25,05,34,6.40
2012,05,25,05,35,6.40
2012,05,25,05,36,6.30
2012,05,25,05,37,6.30
2012,05,25,05,38,6.30
2012,05,25,05,39,6.30
2012,05,25,05,40,6.30
2012,05,25,05,41,6.30
2012,05,25,05,42,6.30
2012,05,25,05,43,6.30
2012,05,25,05,44,6.30
2012,05,25,05,45,6.30
2012,05,25,05,46,6.30
2012,05,25,05,47,6.30
2012,05,25,05,48,6.30
2012,05,25,05,49,6.40
2012,05,25,05,50,6.40
2012,05,25,05,51,6.40
2012,05,25,05,52,6.40
2012,05,25,05,53,6.40
2012,05,25,05,54,6.40
2012,05,25,05,55,6.40
2012,05,25,05,56,6.40
2012,05,25,05,57,6.40
2012,05,25,05,58,6.40
2012,05,25,05,59,6.40
2012,05,25,06,00,6.40
2012,05,25,06,01,6.40
2012,05,25,06,02,6.40
2012,05,25,06,03,6.40
2012,05,25,06,04,6.40
2012,05,25,06,05,6.40
2012,05,25,06,06,6.40
2012,05,25,06,07,6.40
2012,05,25,06,08,6.50
2012,05,25,06,09,6.50
2012,05,25,06,10,6.50
2012,05,25,06,11,6.60
2012,05,25,06,12,6.60
2012,05,25,06,13,6.60
2012,05,25,06,14,6.70
2012,05,25,06,15,6.70
2012,05,25,06,16,6.70
2012,05,25,06,17,6.70
2012,05,25,06,18,6.70
2012,05,25,06,19,6.80
2012,05,25,06,20,6.80
2012,05,25,06,21,6.80
2012,05,25,06,22,6.80
2012,05,25,06,23,6.80
2012,05,25,06,24,6.80
2012,05,25,06,25,6.80
2012,05,25,06,26,6.80
2012,05,25,06,27,6.80
2012,05,25,06,28,6.80
2012,05,25,06,29,6.80
2012,05,25,06,30,6.80
2012,05,25,06,31,6.90
2012,05,25,06,32,6.80
2012,05,25,06,33,6.80
2012,05,25,06,34,6.90
2012,05,25,06,35,6.90
2012,05,25,06,36,6.90
2012,05,25,06,37,6.90
2012,05,25,06,38,6.90
2012,05,25,06,39,6.90
2012,05,25,06,40,6.90
2012,05,25,06,41,7.00
2012,05,25,06,42,7.00
2012,05,25,06,43,7.00
2012,05,25,06,44,7.10
2012,05,25,06,45,7.10
2012,05,25,06,46,7.10
2012,05,25,06,47,7.20
2012,05,25,06,48,7.20
2012,05,25,06,49,7.20
2012,05,25,06,50,7.20
2012,05,25,06,51,7.30
2012,05,25,06,52,7.30
2012,05,25,06,53,7.30
2012,05,25,06,54,7.30
2012,05,25,06,55,7.40
2012,05,25,06,56,7.40
2012,05,25,06,57,7.40
2012,05,25,06,58,7.50
2012,05,25,06,59,7.50
2012,05,25,07,00,7.60
2012,05,25,07,01,7.60
2012,05,25,07,02,7.60
2012,05,25,07,03,7.70
2012,05,25,07,04,7.70
2012,05,25,07,05,7.70
2012,05,25,07,06,7.80
2012,05,25,07,07,7.80
2012,05,25,07,08,7.80
2012,05,25,07,09,7.90
2012,05,25,07,10,7.90
2012,05,25,07,11,8.00
2012,05,25,07,12,8.00
2012,05,25,07,13,8.10
2012,05,25,07,14,8.10
2012,05,25,07,15,8.20
2012,05,25,07,16,8.20
2012,05,25,07,17,8.20
2012,05,25,07,18,8.30
2012,05,25,07,19,8.30
2012,05,25,07,20,8.40
2012,05,25,07,21,8.40
2012,05,25,07,22,8.50
2012,05,25,07,23,8.50
2012,05,25,07,24,8.60
2012,05,25,07,25,8.70
2012,05,25,07,26,8.70
2012,05,25,07,27,8.80
2012,05,25,07,28,8.90
2012,05,25,07,29,9.00
2012,05,25,07,30,9.10
2012,05,25,07,31,9.10
2012,05,25,07,32,9.20
2012,05,25,07,33,9.30
2012,05,25,07,34,9.30
2012,05,25,07,35,9.40
2012,05,25,07,36,9.50
2012,05,25,07,37,9.50
2012,05,25,07,38,9.60
2012,05,25,07,39,9.60
2012,05,25,07,40,9.70
2012,05,25,07,41,9.70
2012,05,25,07,42,9.80
2012,05,25,07,43,9.80
2012,05,25,07,44,9.90
2012,05,25,07,45,10.00
2012,05,25,07,46,10.20
2012,05,25,07,47,10.30
2012,05,25,07,48,10.40
2012,05,25,07,49,10.50
2012,05,25,07,50,10.50
2012,05,25,07,51,10.60
2012,05,25,07,52,10.70
2012,05,25,07,53,10.70
2012,05,25,07,54,10.80
2012,05,25,07,55,10.90
2012,05,25,07,56,10.90
2012,05,25,07,57,11.10
2012,05,25,07,58,11.20
2012,05,25,07,59,11.30
2012,05,25,08,00,11.40
2012,05,25,08,01,11.50
2012,05,25,08,02,11.60
2012,05,25,08,03,11.70
2012,05,25,08,04,11.70
2012,05,25,08,05,11.80
2012,05,25,08,06,11.90
2012,05,25,08,07,12.00
2012,05,25,08,08,12.10
2012,05,25,08,09,12.20
2012,05,25,08,10,12.30
2012,05,25,08,11,12.40
2012,05,25,08,12,12.50
2012,05,25,08,13,12.60
2012,05,25,08,14,12.70
2012,05,25,08,15,12.80
2012,05,25,08,16,12.90
2012,05,25,08,17,13.00
2012,05,25,08,18,13.10
2012,05,25,08,19,13.20
2012,05,25,08,20,13.20
2012,05,25,08,21,13.30
2012,05,25,08,22,13.40
2012,05,25,08,23,13.50
2012,05,25,08,24,13.60
2012,05,25,08,25,13.70
2012,05,25,08,26,13.80
2012,05,25,08,27,13.80
2012,05,25,08,28,13.90
2012,05,25,08,29,14.00
2012,05,25,08,30,14.10
2012,05,25,08,31,14.20
2012,05,25,08,32,14.30
2012,05,25,08,33,14.30
2012,05,25,08,34,14.40
2012,05,25,08,35,14.50
2012,05,25,08,36,14.60
2012,05,25,08,37,14.70
2012,05,25,08,38,14.80
2012,05,25,08,39,14.80
2012,05,25,08,40,14.90
2012,05,25,08,41,14.90
2012,05,25,08,42,15.00
2012,05,25,08,43,15.10
2012,05,25,08,44,15.20
2012,05,25,08,45,15.20
2012,05,25,08,46,15.30
2012,05,25,08,47,15.40
2012,05,25,08,48,15.60
2012,05,25,08,49,15.70
2012,05,25,08,50,15.80
2012,05,25,08,51,15.80
2012,05,25,08,52,15.90
2012,05,25,08,53,15.90
2012,05,25,08,54,15.80
2012,05,25,08,55,15.90
2012,05,25,08,56,15.90
2012,05,25,08,57,16.00
2012,05,25,08,58,16.00
2012,05,25,08,59,16.00
2012,05,25,09,00,16.00
2012,05,25,09,01,16.00
2012,05,25,09,02,16.00
2012,05,25,09,03,16.00
2012,05,25,09,04,16.10
2012,05,25,09,05,16.10
2012,05,25,09,06,16.20
2012,05,25,09,07,16.30
2012,05,25,09,08,16.40
2012,05,25,09,09,16.60
2012,05,25,09,10,16.70
2012,05,25,09,11,16.70
2012,05,25,09,12,16.80
2012,05,25,09,13,16.90
2012,05,25,09,14,17.00
2012,05,25,09,15,17.10
2012,05,25,09,16,17.20
2012,05,25,09,17,17.30
2012,05,25,09,18,17.40
2012,05,25,09,19,17.40
2012,05,25,09,20,17.50
2012,05,25,09,21,17.50
2012,05,25,09,22,17.60
2012,05,25,09,23,17.70
2012,05,25,09,24,17.80
2012,05,25,09,25,17.90
2012,05,25,09,26,18.00
2012,05,25,09,27,18.10
2012,05,25,09,28,18.10
2012,05,25,09,29,18.10
2012,05,25,09,30,18.10
2012,05,25,09,31,18.10
2012,05,25,09,32,18.10
2012,05,25,09,33,18.10
2012,05,25,09,34,18.20
2012,05,25,09,35,18.30
2012,05,25,09,36,18.30
2012,05,25,09,37,18.40
2012,05,25,09,38,18.40
2012,05,25,09,39,18.50
2012,05,25,09,40,18.50
2012,05,25,09,41,18.60
2012,05,25,09,42,18.50
2012,05,25,09,43,18.40
2012,05,25,09,44,18.30
2012,05,25,09,45,18.00
2012,05,25,09,46,17.70
2012,05,25,09,47,17.40
2012,05,25,09,48,17.10
2012,05,25,09,49,16.90
2012,05,25,09,50,16.70
2012,05,25,09,51,16.60
2012,05,25,09,52,16.40
2012,05,25,09,53,16.30
2012,05,25,09,54,16.20
2012,05,25,09,55,16.10
2012,05,25,09,56,16.10
2012,05,25,09,57,16.10
2012,05,25,09,58,16.10
2012,05,25,09,59,16.10
2012,05,25,10,00,16.10
2012,05,25,10,01,16.20
2012,05,25,10,02,16.20
2012,05,25,10,03,16.20
2012,05,25,10,04,16.30
2012,05,25,10,05,16.30
2012,05,25,10,06,16.30
2012,05,25,10,07,16.40
2012,05,25,10,08,16.40
2012,05,25,10,09,16.40
2012,05,25,10,10,16.40
2012,05,25,10,11,16.50
2012,05,25,10,12,16.50
2012,05,25,10,13,16.50
2012,05,25,10,14,16.50
2012,05,25,10,15,16.60
2012,05,25,10,16,16.60
2012,05,25,10,17,16.70
2012,05,25,10,18,16.80
2012,05,25,10,19,17.00
2012,05,25,10,20,17.10
2012,05,25,10,21,17.10
2012,05,25,10,22,17.20
2012,05,25,10,23,17.20
2012,05,25,10,24,17.20
2012,05,25,10,25,17.30
2012,05,25,10,26,17.30
2012,05,25,10,27,17.30
2012,05,25,10,28,17.40
2012,05,25,10,29,17.40
2012,05,25,10,30,17.60
2012,05,25,10,31,17.70
2012,05,25,10,32,17.80
2012,05,25,10,33,18.00
2012,05,25,10,34,18.10
2012,05,25,10,35,18.20
2012,05,25,10,36,18.30
2012,05,25,10,37,18.40
2012,05,25,10,38,18.60
2012,05,25,10,39,18.70
2012,05,25,10,40,18.70
2012,05,25,10,41,18.70
2012,05,25,10,42,18.70
2012,05,25,10,43,18.70
2012,05,25,10,44,18.70
2012,05,25,10,45,18.70
2012,05,25,10,46,18.70
2012,05,25,10,47,18.70
2012,05,25,10,48,18.70
2012,05,25,10,49,18.80
2012,05,25,10,50,18.80
2012,05,25,10,51,18.90
2012,05,25,10,52,19.00
2012,05,25,10,53,19.10
2012,05,25,10,54,19.20
2012,05,25,10,55,19.30
2012,05,25,10,56,19.30
2012,05,25,10,57,19.30
2012,05,25,10,58,19.40
2012,05,25,10,59,19.40
2012,05,25,11,00,19.40
2012,05,25,11,01,19.40
2012,05,25,11,02,19.40
2012,05,25,11,03,19.40
2012,05,25,11,04,19.40
2012,05,25,11,05,19.30
2012,05,25,11,06,19.30
2012,05,25,11,07,19.20
2012,05,25,11,08,19.20
2012,05,25,11,09,19.20
2012,05,25,11,10,19.10
2012,05,25,11,11,19.10
2012,05,25,11,12,19.20
2012,05,25,11,13,19.20
2012,05,25,11,14,19.20
2012,05,25,11,15,19.10
2012,05,25,11,16,19.10
2012,05,25,11,17,19.10
2012,05,25,11,18,19.10
2012,05,25,11,19,19.20
2012,05,25,11,20,19.20
2012,05,25,11,21,19.30
2012,05,25,11,22,19.30
2012,05,25,11,23,19.20
2012,05,25,11,24,19.20
2012,05,25,11,25,19.20
2012,05,25,11,26,19.20
2012,05,25,11,27,19.20
2012,05,25,11,28,19.30
2012,05,25,11,29,19.30
2012,05,25,11,30,19.30
2012,05,25,11,31,19.30
2012,05,25,11,32,19.40
2012,05,25,11,33,19.40
2012,05,25,11,34,19.50
2012,05,25,11,35,19.60
2012,05,25,11,36,19.60
2012,05,25,11,37,19.60
2012,05,25,11,38,19.60
2012,05,25,11,39,19.60
2012,05,25,11,40,19.60
2012,05,25,11,41,19.50
2012,05,25,11,42,19.50
2012,05,25,11,43,19.40
2012,05,25,11,44,19.30
2012,05,25,11,45,19.30
2012,05,25,11,46,19.30
2012,05,25,11,47,19.40
2012,05,25,11,48,19.50
2012,05,25,11,49,19.50
2012,05,25,11,50,19.60
2012,05,25,11,51,19.70
2012,05,25,11,52,19.80
2012,05,25,11,53,19.80
2012,05,25,11,54,19.90
2012,05,25,11,55,19.90
2012,05,25,11,56,20.00
2012,05,25,11,57,20.00
2012,05,25,11,58,20.10
2012,05,25,11,59,20.10
2012,05,25,12,00,20.10
2012,05,25,12,01,20.10
2012,05,25,12,02,20.10
2012,05,25,12,03,20.10
2012,05,25,12,04,20.20
2012,05,25,12,05,20.20
2012,05,25,12,06,20.30
2012,05,25,12,07,20.30
2012,05,25,12,08,20.30
2012,05,25,12,09,20.30
2012,05,25,12,10,20.40
2012,05,25,12,11,20.40
2012,05,25,12,12,20.40
2012,05,25,12,13,20.40
2012,05,25,12,14,20.40
2012,05,25,12,15,20.40
2012,05,25,12,16,20.40
2012,05,25,12,17,20.50
2012,05,25,12,18,20.50
2012,05,25,12,19,20.60
2012,05,25,12,20,20.60
2012,05,25,12,21,20.60
2012,05,25,12,22,20.70
2012,05,25,12,23,20.80
2012,05,25,12,24,20.80
2012,05,25,12,25,20.90
2012,05,25,12,26,21.00
2012,05,25,12,27,21.20
2012,05,25,12,28,21.20
2012,05,25,12,29,21.00
2012,05,25,12,30,20.80
2012,05,25,12,31,20.70
2012,05,25,12,32,20.30
2012,05,25,12,33,20.00
2012,05,25,12,34,19.70
2012,05,25,12,35,19.40
2012,05,25,12,36,19.10
2012,05,25,12,37,18.80
2012,05,25,12,38,18.50
2012,05,25,12,39,18.30
2012,05,25,12,40,18.20
2012,05,25,12,41,18.10
2012,05,25,12,42,18.10
2012,05,25,12,43,18.10
2012,05,25,12,44,18.10
2012,05,25,12,45,18.00
2012,05,25,12,46,18.00
2012,05,25,12,47,18.10
2012,05,25,12,48,18.20
2012,05,25,12,49,18.20
2012,05,25,12,50,18.30
2012,05,25,12,51,18.40
2012,05,25,12,52,18.50
2012,05,25,12,53,18.50
2012,05,25,12,54,18.60
2012,05,25,12,55,18.50
2012,05,25,12,56,18.50
2012,05,25,12,57,18.50
2012,05,25,12,58,18.50
2012,05,25,12,59,18.50
2012,05,25,13,00,18.50
2012,05,25,13,01,18.50
2012,05,25,13,02,18.40
2012,05,25,13,03,18.40
2012,05,25,13,04,18.40
2012,05,25,13,05,18.40
2012,05,25,13,06,18.40
2012,05,25,13,07,18.40
2012,05,25,13,08,18.50
2012,05,25,13,09,18.50
2012,05,25,13,10,18.60
2012,05,25,13,11,18.60
2012,05,25,13,12,18.60
2012,05,25,13,13,18.80
2012,05,25,13,14,18.90
2012,05,25,13,15,19.10
2012,05,25,13,16,19.20
2012,05,25,13,17,19.20
2012,05,25,13,18,19.20
2012,05,25,13,19,19.20
2012,05,25,13,20,19.20
2012,05,25,13,21,19.30
2012,05,25,13,22,19.30
2012,05,25,13,23,19.40
2012,05,25,13,24,19.40
2012,05,25,13,25,19.50
2012,05,25,13,26,19.60
2012,05,25,13,27,19.70
2012,05,25,13,28,19.80
2012,05,25,13,29,20.00
2012,05,25,13,30,20.30
2012,05,25,13,31,20.50
2012,05,25,13,32,20.60
2012,05,25,13,33,20.90
2012,05,25,13,34,21.10
2012,05,25,13,35,21.20
2012,05,25,13,36,21.30
2012,05,25,13,37,21.40
2012,05,25,13,38,21.50
2012,05,25,13,39,21.60
2012,05,25,13,40,21.70
2012,05,25,13,41,21.70
2012,05,25,13,42,21.80
2012,05,25,13,43,21.80
2012,05,25,13,44,21.90
2012,05,25,13,45,21.90
2012,05,25,13,46,22.00
2012,05,25,13,47,21.90
2012,05,25,13,48,21.90
2012,05,25,13,49,21.90
2012,05,25,13,50,21.90
2012,05,25,13,51,22.00
2012,05,25,13,52,22.10
2012,05,25,13,53,22.20
2012,05,25,13,54,22.30
2012,05,25,13,55,22.40
2012,05,25,13,56,22.50
2012,05,25,13,57,22.60
2012,05,25,13,58,22.80
2012,05,25,13,59,23.00
2012,05,25,14,00,23.10
2012,05,25,14,01,23.20
2012,05,25,14,02,23.30
2012,05,25,14,03,23.20
2012,05,25,14,04,23.10
2012,05,25,14,05,22.90
2012,05,25,14,06,22.80
2012,05,25,14,07,22.60
2012,05,25,14,08,22.60
2012,05,25,14,09,22.50
2012,05,25,14,10,22.40
2012,05,25,14,11,22.40
2012,05,25,14,12,22.40
2012,05,25,14,13,22.40
2012,05,25,14,14,22.50
2012,05,25,14,15,22.50
2012,05,25,14,16,22.60
2012,05,25,14,17,22.60
2012,05,25,14,18,22.60
2012,05,25,14,19,22.70
2012,05,25,14,20,22.70
2012,05,25,14,21,22.80
2012,05,25,14,22,22.90
2012,05,25,14,23,22.90
2012,05,25,14,24,22.90
2012,05,25,14,25,22.90
2012,05,25,14,26,22.80
2012,05,25,14,27,22.80
2012,05,25,14,28,22.70
2012,05,25,14,29,22.70
2012,05,25,14,30,22.70
2012,05,25,14,31,22.80
2012,05,25,14,32,22.90
2012,05,25,14,33,23.00
2012,05,25,14,34,23.10
2012,05,25,14,35,23.20
2012,05,25,14,36,23.20
2012,05,25,14,37,23.30
2012,05,25,14,38,23.30
2012,05,25,14,39,23.20
2012,05,25,14,40,23.20
2012,05,25,14,41,23.20
2012,05,25,14,42,23.20
2012,05,25,14,43,23.20
2012,05,25,14,44,23.30
2012,05,25,14,45,23.40
2012,05,25,14,46,23.50
2012,05,25,14,47,23.60
2012,05,25,14,48,23.70
2012,05,25,14,49,23.80
2012,05,25,14,50,23.90
2012,05,25,14,51,24.00
2012,05,25,14,52,24.00
2012,05,25,14,53,24.00
2012,05,25,14,54,24.00
2012,05,25,14,55,24.10
2012,05,25,14,56,24.10
2012,05,25,14,57,24.10
2012,05,25,14,58,24.10
2012,05,25,14,59,24.20
2012,05,25,15,00,24.10
2012,05,25,15,01,24.00
2012,05,25,15,02,24.00
2012,05,25,15,03,24.10
2012,05,25,15,04,24.20
2012,05,25,15,05,24.30
2012,05,25,15,06,24.30
2012,05,25,15,07,24.20
2012,05,25,15,08,24.20
2012,05,25,15,09,24.10
2012,05,25,15,10,24.10
2012,05,25,15,11,24.20
2012,05,25,15,12,24.20
2012,05,25,15,13,24.30
2012,05,25,15,14,24.30
2012,05,25,15,15,24.40
2012,05,25,15,16,24.50
2012,05,25,15,17,24.50
2012,05,25,15,18,24.40
2012,05,25,15,19,24.30
2012,05,25,15,20,24.20
2012,05,25,15,21,24.10
2012,05,25,15,22,24.10
2012,05,25,15,23,24.10
2012,05,25,15,24,24.20
2012,05,25,15,25,24.30
2012,05,25,15,26,24.30
2012,05,25,15,27,24.20
2012,05,25,15,28,24.20
2012,05,25,15,29,24.10
2012,05,25,15,30,24.10
2012,05,25,15,31,24.00
2012,05,25,15,32,24.00
2012,05,25,15,33,24.00
2012,05,25,15,34,24.00
2012,05,25,15,35,24.10
2012,05,25,15,36,24.10
2012,05,25,15,37,24.20
2012,05,25,15,38,24.20
2012,05,25,15,39,24.20
2012,05,25,15,40,24.20
2012,05,25,15,41,24.20
2012,05,25,15,42,24.20
2012,05,25,15,43,24.10
2012,05,25,15,44,24.10
2012,05,25,15,45,24.00
2012,05,25,15,46,24.00
2012,05,25,15,47,24.00
2012,05,25,15,48,24.10
2012,05,25,15,49,24.10
2012,05,25,15,50,24.10
2012,05,25,15,51,24.10
2012,05,25,15,52,24.10
2012,05,25,15,53,24.10
2012,05,25,15,54,24.20
2012,05,25,15,55,24.20
2012,05,25,15,56,24.20
2012,05,25,15,57,24.20
2012,05,25,15,58,24.30
2012,05,25,15,59,24.20
2012,05,25,16,00,24.20
2012,05,25,16,01,24.20
2012,05,25,16,02,24.20
2012,05,25,16,03,24.10
2012,05,25,16,04,24.10
2012,05,25,16,05,24.10
2012,05,25,16,06,24.10
2012,05,25,16,07,24.10
2012,05,25,16,08,24.10
2012,05,25,16,09,24.10
2012,05,25,16,10,24.00
2012,05,25,16,11,24.00
2012,05,25,16,12,23.90
2012,05,25,16,13,23.90
2012,05,25,16,14,23.90
2012,05,25,16,15,23.90
2012,05,25,16,16,23.90
2012,05,25,16,17,23.90
2012,05,25,16,18,23.80
2012,05,25,16,19,23.80
2012,05,25,16,20,23.80
2012,05,25,16,21,23.80
2012,05,25,16,22,23.70
2012,05,25,16,23,23.70
2012,05,25,16,24,23.70
2012,05,25,16,25,23.60
2012,05,25,16,26,23.60
2012,05,25,16,27,23.60
2012,05,25,16,28,23.60
2012,05,25,16,29,23.60
2012,05,25,16,30,23.60
2012,05,25,16,31,23.60
2012,05,25,16,32,23.70
2012,05,25,16,33,23.70
2012,05,25,16,34,23.80
2012,05,25,16,35,23.80
2012,05,25,16,36,23.80
2012,05,25,16,37,23.70
2012,05,25,16,38,23.70
2012,05,25,16,39,23.60
2012,05,25,16,40,23.60
2012,05,25,16,41,23.60
2012,05,25,16,42,23.60
2012,05,25,16,43,23.60
2012,05,25,16,44,23.60
2012,05,25,16,45,23.60
2012,05,25,16,46,23.60
2012,05,25,16,47,23.60
2012,05,25,16,48,23.60
2012,05,25,16,49,23.60
2012,05,25,16,50,23.70
2012,05,25,16,51,23.70
2012,05,25,16,52,23.70
2012,05,25,16,53,23.60
2012,05,25,16,54,23.40
2012,05,25,16,55,23.30
2012,05,25,16,56,23.20
2012,05,25,16,57,23.10
2012,05,25,16,58,23.00
2012,05,25,16,59,22.90
2012,05,25,17,00,22.80
2012,05,25,17,01,22.70
2012,05,25,17,02,22.60
2012,05,25,17,03,22.40
2012,05,25,17,04,22.30
2012,05,25,17,05,22.10
2012,05,25,17,06,22.00
2012,05,25,17,07,22.00
2012,05,25,17,08,22.00
2012,05,25,17,09,22.00
2012,05,25,17,10,22.00
2012,05,25,17,11,22.10
2012,05,25,17,12,22.20
2012,05,25,17,13,22.30
2012,05,25,17,14,22.30
2012,05,25,17,15,22.20
2012,05,25,17,16,22.20
2012,05,25,17,17,22.10
2012,05,25,17,18,22.00
2012,05,25,17,19,22.00
2012,05,25,17,20,21.90
2012,05,25,17,21,21.90
2012,05,25,17,22,21.90
2012,05,25,17,23,21.90
2012,05,25,17,24,21.90
2012,05,25,17,25,21.90
2012,05,25,17,26,21.90
2012,05,25,17,27,22.00
2012,05,25,17,28,22.00
2012,05,25,17,29,22.10
2012,05,25,17,30,22.10
2012,05,25,17,31,22.10
2012,05,25,17,32,22.20
2012,05,25,17,33,22.20
2012,05,25,17,34,22.20
2012,05,25,17,35,22.20
2012,05,25,17,36,22.30
2012,05,25,17,37,22.20
2012,05,25,17,38,22.20